Location: Moscow
(55.7500°N, 37.5830°E)
Time: 03:59:45
(UTC+03:00)

Vanguard 1 - Pass Details

Date: 17 August 2022
Orbit: 649 x 3832 km, 34.2° (Epoch: 30 September)

Event Time Altitude Azimuth Distance (km) Brightness Sun altitude
Exits shadow 02:19:07 13° 174° (S) 4,484 12.9 -17.3°
Maximum altitude 02:26:34 20° 139° (SE) 4,658 13.3 -16.8°
Drops below altitude 10° 02:38:19 10° 101° (E) 6,389 14.4 -16.0°
Sets 02:45:59 0° 89° (E) 7,786 15.2 -15.4°
